Location: Asheville, NC
(35.6000°N, 82.5500°W)
Time: 10:38:23

RS-15 - Pass Details

Date: 14 March 2018
Orbit: 1888 x 2157 km, 64.8° (Epoch: 20 March)

Event Time Altitude Azimuth Distance (km) Brightness Sun altitude
Exits shadow 23:19:22 13° 48° (NE) 4,379 9.7 -43.5°
Drops below altitude 10° 23:20:23 10° 45° (NE) 4,622 9.9 -43.6°
Sets 23:24:09 0° 38° (NE) 5,601 10.5 -44.2°
